Flag for Gaza Strip Weather past 2 weeks in Gaza, Gaza Strip

Now
63 °F

Clear.


Feels Like: 63 °F
Forecast: 60 / 66 °F
Wind: 7 mph from North

Location: Ben Gurion International Airport

Current Time: Jan 26, 2015 at 6:43:45 PM

Latest Report: Jan 26, 2015 at 5:50 PM


Visibility: 10 mi

Pressure: 30.12 "Hg

Humidity: 77%

Dew point: 55 °F

Location of GazaLocation

Historic Weather in Gaza — Graph

°F

Gaza temperature yesterday

Maximum temperature yesterday: 72 °F (at 1:50 PM)
Minimum temperature yesterday: 48 °F (at 6:50 AM)
Average temperature yesterday: 59 °F

Past Weeks' High & Low Weather Summary

 TemperatureHumidityPressure
High77 °F (Jan 21, 2:20 PM)100% (Jan 18, 4:20 AM)30.36 "Hg (Jan 18, 4:20 AM)
Low41 °F (Jan 12, 3:20 AM)22% (Jan 24, 1:50 PM)29.92 "Hg (Jan 24, 1:20 AM)
Average55 °F71%30.14 "Hg
* Reported Jan 11 5:20 PM — Jan 26 5:50 PM, Gaza, Weather by CustomWeather, © 2014

Note: Actual official high and low records may vary slightly from our data, if they occured in-between our weather recording intervals... More about our weather records

Advertising

Gaza weather history for previous 24 hours

 ConditionsComfort  
Time TempWeatherWind HumidityBarometerVisibility
5:50 PM
Jan 26
63 °FClear.7 mph77%30.12 "Hg10 mi
5:20 PM63 °FClear.7 mph73%30.12 "Hg10 mi
4:50 PM64 °FSunny.8 mph68%30.12 "Hg10 mi
4:20 PM64 °FSunny.7 mph64%30.09 "Hg10 mi
3:50 PM66 °FSunny.9 mph56%30.09 "Hg10 mi
3:20 PM66 °FSunny.10 mph56%30.07 "Hg10 mi
2:50 PM68 °FSunny.9 mph56%30.07 "Hg10 mi
2:20 PM66 °FSunny.10 mph56%30.07 "Hg10 mi
1:50 PM66 °FSunny.10 mph52%30.07 "Hg10 mi
1:20 PM66 °FSunny.10 mph60%30.07 "Hg10 mi
12:50 PM68 °FSunny.10 mph60%30.07 "Hg10 mi
12:20 PM70 °FSunny.6 mph38%30.09 "Hg10 mi
11:50 AM68 °FClear.7 mph40%30.09 "Hg6 mi
11:20 AM68 °FClear.8 mph43%30.09 "Hg4 mi
10:50 AM66 °FClear.9 mph49%30.12 "Hg4 mi
10:20 AM68 °FHaze.2 mph60%30.12 "Hg3 mi
9:50 AM66 °FHaze.2 mph68%30.12 "Hg3 mi
9:20 AM61 °FHaze.2 mph72%30.12 "Hg3 mi
8:50 AM61 °FFog.1 mph72%30.12 "Hg3 mi
8:20 AM55 °FFog.No wind88%30.12 "Hg2 mi
7:50 AM54 °FFog.2 mph88%30.09 "Hg2 mi
7:20 AM54 °FFog.1 mph88%30.09 "Hg2 mi
6:50 AM54 °FFog.2 mph88%30.09 "Hg2 mi
6:20 AM54 °FFog.No wind88%30.09 "Hg3 mi
5:50 AM52 °FFog.1 mph94%30.09 "Hg3 mi
5:20 AM54 °FFog.1 mph88%30.07 "Hg3 mi
4:50 AM54 °FFog.3 mph88%30.07 "Hg3 mi
4:20 AM54 °FFog.3 mph88%30.07 "Hg3 mi
3:50 AM54 °FFog.2 mph88%30.07 "Hg2 mi
3:20 AM54 °FFog.3 mph88%30.07 "Hg2 mi
2:50 AM54 °FFog.5 mph94%30.07 "Hg2 mi
2:20 AM55 °FFog.2 mph88%30.07 "Hg2 mi
1:50 AM55 °FFog.1 mph88%30.07 "Hg2 mi
1:20 AM55 °FFog.3 mph88%30.07 "Hg1 mi
12:50 AM55 °FFog.3 mph94%30.07 "Hg2 mi
12:20 AM55 °FFog.3 mph94%30.07 "Hg1 mi
11:20 PM
Jan 25
57 °FFog.2 mph88%30.07 "Hg2 mi
10:50 PM57 °FFog.3 mph94%30.07 "Hg2 mi
10:20 PM57 °FFog.2 mph94%30.04 "Hg2 mi
9:50 PM57 °FFog.3 mph88%30.07 "Hg2 mi
9:20 PM59 °FHaze.3 mph88%30.04 "Hg3 mi
8:50 PM59 °FHaze.3 mph82%30.07 "Hg3 mi
8:20 PM59 °FHaze.3 mph88%30.07 "Hg3 mi
7:50 PM61 °FHaze.1 mph83%30.07 "Hg3 mi
7:20 PM61 °FHaze.1 mph88%30.07 "Hg3 mi
6:50 PM61 °FHaze.3 mph88%30.04 "Hg3 mi
6:20 PM63 °FClear.1 mph83%30.04 "Hg4 mi
Weather by CustomWeather, © 2014

See weather overviewHow to use our weather pages